Weather History for KCRP - July, 2013

Change the Weather History Date:

Monday, July 15, 2013

  Actual Average Record
Temperature  
Mean Temperature 88 °F 84 °F  
Max Temperature 96 °F 93 °F 103 °F (2000)
Min Temperature 80 °F 75 °F 68 °F (1967)
Degree Days  
Heating Degree Days 0 0  
Month to date heating degree days 0 0  
Since 1 June heating degree days 0 0  
Since 1 July heating degree days 0 0  
Cooling Degree Days 23 19  
Month to date cooling degree days 320 281  
Year to date cooling degree days 1996 1644  
Since 1 June cooling degree days 978 803  
Growing Degree Days 38 (Base 50)    
Moisture  
Dew Point 73 °F    
Average Humidity 64    
Maximum Humidity 79    
Minimum Humidity 49    
Precipitation  
Precipitation 0.00 in 0.10 in 1.37 in (1983)
Month to date precipitation T 1.72  
Year to date precipitation 7.07 15.35  
Snow  
Snow 0.00 in - - ()
Month to date snowfall 0.0  
Since 1 June snowfall 0.0  
Since 1 July snowfall 0.0  
Snow Depth 0.00 in    
Sea Level Pressure  
Sea Level Pressure 29.90 in    
Wind  
Wind Speed 15 mph (SE)    
Max Wind Speed 24 mph    
Max Gust Speed 31 mph    
Visibility 10 miles    
Events      
T = Trace of Precipitation, MM = Missing Value Source: NWS Daily Summary

Daily Weather History Graph

Daily Weather History Graph

Search for Another Location

Airport or City:

Trip Planner

Search our weather history database for the weather conditions in past years. The results will help you decide how hot, cold, wet, or windy it might be!

Date:

Astronomy

Jul. 15, 2013 Rise Set
Actual Time 6:44 AM CDT 8:27 PM CDT
Civil Twilight 6:18 AM CDT 8:53 PM CDT
Nautical Twilight 5:46 AM CDT 9:25 PM CDT
Astronomical Twilight 5:13 AM CDT 9:58 PM CDT
Moon 1:22 PM CDT (7/15) 12:20 AM CDT (7/15)
Length of Visible Light 14h 35m
Length of Day
13h 43m
Waxing Crescent, 45% of the Moon is Illuminated
Jul 15
Waxing Crescent
Jul 15
First Quarter
Jul 22
Full
Jul 29
Last Quarter
Aug 6
New

Hourly Weather History & Observations

Time (CDT) Temp. Heat Index Dew Point Humidity Pressure Visibility Wind Dir Wind Speed Gust Speed Precip Events Conditions
12:51 AM 84.0 °F 90.2 °F 73.0 °F 69% 29.88 in 10.0 mi SSE 10.4 mph - N/A   Partly Cloudy
1:51 AM 82.9 °F 88.8 °F 73.0 °F 72% 29.87 in 10.0 mi SSE 10.4 mph - N/A   Partly Cloudy
2:51 AM 82.9 °F 88.8 °F 73.0 °F 72% 29.86 in 10.0 mi SSE 9.2 mph - N/A   Scattered Clouds
3:51 AM 82.0 °F 87.9 °F 73.9 °F 76% 29.86 in 10.0 mi SSE 9.2 mph - N/A   Partly Cloudy
4:51 AM 82.0 °F 87.9 °F 73.9 °F 76% 29.86 in 10.0 mi South 9.2 mph - N/A   Partly Cloudy
5:51 AM 82.0 °F 87.9 °F 73.9 °F 76% 29.87 in 10.0 mi South 6.9 mph - N/A   Partly Cloudy
6:51 AM 81.0 °F 86.2 °F 73.9 °F 79% 29.88 in 10.0 mi SSE 5.8 mph - N/A   Partly Cloudy
7:51 AM 82.0 °F 88.6 °F 75.0 °F 79% 29.88 in 10.0 mi SSE 6.9 mph - N/A   Partly Cloudy
8:51 AM 84.9 °F 93.3 °F 75.0 °F 72% 29.90 in 10.0 mi SSE 13.8 mph - N/A   Partly Cloudy
9:51 AM 88.0 °F 94.7 °F 72.0 °F 59% 29.91 in 10.0 mi South 18.4 mph 25.3 mph N/A   Scattered Clouds
10:51 AM 91.0 °F 98.2 °F 72.0 °F 53% 29.91 in 10.0 mi SE 19.6 mph 25.3 mph N/A   Scattered Clouds
11:51 AM 91.9 °F 98.4 °F 71.1 °F 50% 29.92 in 10.0 mi SSE 17.3 mph 27.6 mph N/A   Scattered Clouds
12:51 PM 93.9 °F 100.8 °F 71.1 °F 47% 29.91 in 10.0 mi SE 21.9 mph 28.8 mph N/A   Scattered Clouds
1:51 PM 93.9 °F 100.8 °F 71.1 °F 47% 29.91 in 10.0 mi SE 20.7 mph 28.8 mph N/A   Scattered Clouds
2:51 PM 93.9 °F 102.1 °F 72.0 °F 49% 29.90 in 10.0 mi ESE 19.6 mph 26.5 mph N/A   Scattered Clouds
3:51 PM 93.9 °F 100.8 °F 71.1 °F 47% 29.88 in 10.0 mi ESE 18.4 mph 28.8 mph N/A   Scattered Clouds
4:51 PM 91.0 °F 98.2 °F 72.0 °F 53% 29.88 in 10.0 mi ESE 20.7 mph 27.6 mph N/A   Scattered Clouds
5:51 PM 90.0 °F 96.9 °F 72.0 °F 55% 29.88 in 10.0 mi SE 21.9 mph 26.5 mph N/A   Mostly Cloudy
6:51 PM 89.1 °F 97.0 °F 73.0 °F 59% 29.89 in 10.0 mi SE 18.4 mph 24.2 mph N/A   Scattered Clouds
7:51 PM 87.1 °F 93.6 °F 72.0 °F 61% 29.92 in 10.0 mi ESE 17.3 mph - N/A   Scattered Clouds
8:51 PM 86.0 °F 93.8 °F 73.9 °F 67% 29.93 in 10.0 mi ESE 16.1 mph - N/A   Partly Cloudy
9:51 PM 84.9 °F 91.4 °F 73.0 °F 67% 29.94 in 10.0 mi ESE 15.0 mph - N/A   Partly Cloudy
10:51 PM 84.9 °F 92.1 °F 73.9 °F 69% 29.95 in 10.0 mi ESE 12.7 mph 21.9 mph N/A   Partly Cloudy
11:51 PM 84.0 °F 91.9 °F 75.0 °F 74% 29.96 in 10.0 mi ESE 13.8 mph 19.6 mph N/A   Scattered Clouds